Preview of NWS' New Version of Forecast
This preview is not operational and should not be used for support decisions.

Regional Weather Roundup (RWR)

Issued by National Weather Service (NWS)

                            
000
ASUS45 KCYS 191410
RWRWY 

WYOMING REGIONAL WEATHER ROUNDUP
NATIONAL WEATHER SERVICE CHEYENNE WY
800 AM MDT MON AUG 19 2019

NOTE:  "FAIR" INDICATES FEW OR NO CLOUDS BELOW 12,000 FEET
WITH NO SIGNIFICANT WEATHER AND/OR OBSTRUCTIONS TO VISIBILITY.

WYZ001-191500-
...YELLOWSTONE NATIONAL PARK...
  
CITY           SKY/WX    TMP DP  RH WIND       PRES   REMARKS
LK YELLOWSTONE   N/A     43  37  79 CALM      30.27R                  
W YELLOWSTONE  NOT AVBL                                               

$$
WYZ002>013-054>058-071-098>099-191500-
...NORTHERN WYOMING...
  
CITY           SKY/WX    TMP DP  RH WIND       PRES   REMARKS
JACKSON        SUNNY     48  36  61 MISG        N/A                   
CODY           SUNNY     69  38  32 S10       30.03R                  
GREYBULL       SUNNY     59  43  55 CALM      29.96R                  
WORLAND        MOSUNNY   61  38  42 W3        29.96S                  
SHERIDAN       SUNNY     62  48  60 MISG      29.92R                  
BUFFALO        SUNNY     75  42  30 W5        30.00R                  
GILLETTE       SUNNY     66  54  65 S13       29.95S                  
HULETT         FAIR      63  55  77 CALM      29.98S                  
NEWCASTLE      FAIR      63  52  67 W5        30.00S                  

$$
WYZ014>020-022>026-101>103-191500-
...CENTRAL WYOMING...
  
CITY           SKY/WX    TMP DP  RH WIND       PRES   REMARKS
BIG PINEY      MOSUNNY   46  32  58 E7        30.25R                  
PINEDALE       MOSUNNY   50  34  53 NW6       30.26R                  
DUBOIS         FAIR      59  32  36 SE3       30.20R                  
LANDER         SUNNY     65  33  30 NW6       30.09S                  
RIVERTON       SUNNY     67  33  28 W3        30.09R                  
CASPER         SUNNY     69  31  24 W5        30.08R                  
DOUGLAS        SUNNY     61  44  53 CALM      30.06S                  

$$
WYZ021-027>030-104>119-191500-
...SOUTHERN WYOMING...
  
CITY           SKY/WX    TMP DP  RH WIND       PRES   REMARKS
EVANSTON       SUNNY     62  23  22 S5        30.25R                  
KEMMERER       SUNNY     55  30  38 N5        30.26R                  
FORT BRIDGER   NOT AVBL                                               
ROCK SPRINGS   SUNNY     59  29  31 S5        30.23R                  
DIXON          FAIR      58  30  34 E10G22    30.25S                  
RAWLINS        PTSUNNY   58  27  30 CALM      30.24R                  
SARATOGA       FAIR      61  30  31 SE12      30.26S                  
LARAMIE        SUNNY     59  28  30 S7        30.27R                  
CHEYENNE       PTSUNNY   73  29  19 W13       30.16S                  
TORRINGTON     CLOUDY    57  57 100 CALM      30.01R FOG              
PINE BLUFFS    FAIR      59  43  55 CALM      30.09S                  

$$
  

000
ASUS45 KCYS 191410
RWRWY 

WYOMING REGIONAL WEATHER ROUNDUP
NATIONAL WEATHER SERVICE CHEYENNE WY
800 AM MDT MON AUG 19 2019

NOTE:  "FAIR" INDICATES FEW OR NO CLOUDS BELOW 12,000 FEET
WITH NO SIGNIFICANT WEATHER AND/OR OBSTRUCTIONS TO VISIBILITY.

WYZ001-191500-
YELLOWSTONE NATIONAL PARK
  
CITY           SKY/WX    TMP DP  RH WIND       PRES   REMARKS
LK YELLOWSTONE   N/A     43  37  79 CALM      30.27R                  
W YELLOWSTONE  NOT AVBL                                               

$$
WYZ002>013-054>058-071-098>099-191500-
NORTHERN WYOMING
  
CITY           SKY/WX    TMP DP  RH WIND       PRES   REMARKS
JACKSON        FAIR      48  36  61 MISG        N/A                   
CODY           FAIR      69  38  32 S10       30.03R                  
GREYBULL       FAIR      59  43  55 CALM      29.96R                  
WORLAND        FAIR      61  38  42 W3        29.96S                  
SHERIDAN       FAIR      62  48  60 MISG      29.92R                  
BUFFALO        FAIR      75  42  30 W5        30.00R                  
GILLETTE       FAIR      66  54  65 S13       29.95S                  
HULETT         FAIR      63  55  77 CALM      29.98                   
NEWCASTLE      FAIR      63  52  67 W5        30.00                   

$$
WYZ014>020-022>026-101>103-191500-
CENTRAL WYOMING
  
CITY           SKY/WX    TMP DP  RH WIND       PRES   REMARKS
BIG PINEY      FAIR      46  32  58 E7        30.25R                  
PINEDALE       FAIR      50  34  53 NW6       30.26                   
DUBOIS         FAIR      59  32  36 SE3       30.20                   
LANDER         FAIR      65  33  30 NW6       30.09S                  
RIVERTON       FAIR      67  33  28 W3        30.09R                  
CASPER         FAIR      69  31  24 W5        30.08R                  
DOUGLAS        FAIR      61  44  53 CALM      30.06S                  

$$
WYZ021-027>030-104>119-191500-
SOUTHERN WYOMING
  
CITY           SKY/WX    TMP DP  RH WIND       PRES   REMARKS
EVANSTON       FAIR      62  23  22 S5        30.25R                  
KEMMERER       FAIR      55  30  38 N5        30.26                   
ROCK SPRINGS   FAIR      59  29  31 S5        30.23R                  
DIXON          FAIR      58  30  34 E10G22    30.25S                  
RAWLINS        FAIR      58  27  30 CALM      30.24R                  
SARATOGA       FAIR      61  30  31 SE12      30.26S                  
LARAMIE        FAIR      59  28  30 S7        30.27R                  
CHEYENNE       FAIR      73  29  19 W13       30.16S                  
TORRINGTON     CLOUDY    57  57 100 CALM      30.01R FOG              
PINE BLUFFS    FAIR      59  43  55 CALM      30.09S                  

$$